[[{"header":{"parameterUnit":"m.s-1","parameterCategory":1,"la1":30.2991,"la2":30.254,"lo1":-89.0895,"lo2":-89.0444,"dy":0.0017,"dx":0.0017,"nx":28,"ny":28,"refTime":"2024-05-31T09:00:00:Z","depth":0,"parameterNumber":2,"parameterNumberName":"U-component_of_WINDS"},"data":[0,0,0,0,0,0,0,0,0,0,0,0,0,0,0,0,0,0,0,0,0,0,0,0,0,0,0,0,0,0,0,0,0,0,0,0,0,0,0,0,0,0,0,0,0,0,0,0,0,0,0,0,0,0,0,0,0,0,-2.5854,-2.5855,0,-2.5912,-2.5912,-2.5913,-2.5916,-2.5915,-2.5915,-2.5914,-2.5971,-2.5973,-2.5976,0,0,0,0,0,0,0,0,0,0,0,0,0,-2.5746,-2.5748,-2.5854,-2.5855,-2.5855,-2.5911,-2.5912,-2.5913,-2.5916,-2.5915,-2.5915,-2.5914,-2.5971,-2.5973,-2.5976,0,0,0,0,0,0,0,0,0,0,0,0,0,-2.5797,-2.5748,-2.5854,-2.5864,-2.5865,-2.5911,-2.5912,-2.5913,-2.5916,-2.5915,-2.5914,-2.5913,-2.597,-2.5973,-2.5976,-2.6016,0,0,-2.5986,-2.5987,0,0,0,0,0,0,0,0,-2.5794,-2.5801,-2.5862,-2.5863,-2.5865,-2.5906,-2.5895,-2.5947,-2.5917,-2.5897,-2.5914,-2.5913,-2.595,-2.5955,-2.5968,-2.6018,-2.6021,-2.5986,-2.5988,-2.5989,-2.599,0,0,0,0,0,0,0,-2.5791,-2.5798,-2.5877,-2.5862,-2.5864,-2.5865,-2.5871,-2.5905,-2.5928,-2.5899,-2.5899,-2.5906,-2.5951,-2.5965,-2.5969,-2.6022,-2.5986,-2.5989,-2.5991,-2.5992,-2.6108,-2.6109,0,0,0,0,0,0,-2.5785,-2.5796,-2.5875,-2.5878,-2.5826,-2.5868,-2.5875,-2.5894,-2.5928,-2.5932,-2.5907,-2.5906,-2.596,-2.5965,-2.5971,-2.602,-2.5989,-2.5992,-2.5994,-2.6107,-2.6108,-2.6109,0,0,0,0,0,0,-2.5783,-2.5792,-2.5872,-2.5837,-2.5847,-2.5871,-2.5892,-2.5895,-2.5909,-2.5934,-2.5938,-2.5916,-2.5959,-2.5967,-2.6005,-2.6022,-2.5994,-2.5997,-2.6105,-2.6107,-2.6109,-2.6117,0,0,0,0,0,0,-2.578,-2.5791,-2.5807,-2.5837,-2.5849,-2.5905,-2.5893,-2.5897,-2.5915,-2.5914,-2.5944,-2.5948,-2.5959,-2.6,-2.6008,-2.6026,-2.5999,-2.6104,-2.6106,-2.6108,-2.6115,-2.6119,-2.6122,0,0,0,0,0,-2.5776,-2.5806,-2.5807,-2.5817,-2.5869,-2.5906,-2.5913,-2.5925,-2.5916,-2.5932,-2.5948,-2.5947,-2.6019,-2.6004,-2.6013,-2.6032,-2.6103,-2.6105,-2.6108,-2.6114,-2.6118,-2.6121,0,0,0,0,0,0,-2.5776,-2.581,-2.5812,-2.5853,-2.5877,-2.5907,-2.5926,-2.5929,-2.5955,-2.5953,-2.5967,-2.5974,-2.6011,-2.6026,-2.6008,-2.6072,-2.606,-2.6064,-2.6061,-2.6065,-2.6068,-2.6064,-2.6002,0,0,0,0,0,-2.5781,-2.5809,-2.5837,-2.5871,-2.5883,-2.5903,-2.5919,-2.5927,-2.5951,-2.5961,-2.598,-2.6004,-2.6032,-2.6049,-2.6076,-2.6118,-2.6124,-2.6135,-2.6139,-2.6141,-2.6144,-2.6167,-2.6172,-2.6118,-2.6118,-2.6118,0,0,-2.5791,-2.5813,-2.583,-2.5871,-2.5891,-2.5919,-2.5911,-2.5941,-2.5962,-2.5966,-2.6003,-2.6018,-2.6045,-2.6085,-2.6103,-2.6098,-2.6161,-2.6144,-2.6146,-2.6148,-2.617,-2.6176,-2.618,-2.612,-2.6119,-2.6119,0,0,-2.5824,-2.5844,-2.5874,-2.5894,-2.5923,-2.5936,-2.5944,-2.5974,-2.5984,-2.6022,-2.6025,-2.605,-2.6098,-2.6117,-2.6133,-2.6175,-2.6176,-2.6184,-2.62,-2.6222,-2.6226,-2.623,-2.6244,-2.625,-2.6187,-2.6187,-2.6187,0,-2.5832,-2.5875,-2.5889,-2.5919,-2.5937,-2.5943,-2.5974,-2.5992,-2.6029,-2.6041,-2.6035,-2.6095,-2.6114,-2.6158,-2.6169,-2.6182,-2.619,-2.6179,-2.6225,-2.6229,-2.6233,-2.6246,-2.6252,-2.6188,-2.6188,-2.6188,-2.6188,0,-2.5884,-2.5914,-2.5935,-2.5971,-2.5992,-2.6022,-2.604,-2.6059,-2.6065,-2.6079,-2.6118,-2.6141,-2.6173,-2.6184,-2.619,-2.623,-2.6226,-2.6222,-2.621,-2.6238,-2.6251,-2.6257,-2.6189,-2.6189,-2.6188,-2.6188,0,0,-2.5917,-2.5961,-2.5968,-2.5985,-2.6019,-2.6042,-2.6073,-2.6104,-2.612,-2.6146,-2.6172,-2.6213,-2.621,-2.6228,-2.6237,-2.6256,-2.6288,-2.6251,-2.6251,-2.6256,-2.6332,-2.6334,-2.634,-2.6289,-2.629,-2.6291,-2.633,0,-2.5953,-2.6008,-2.6022,-2.6068,-2.6096,-2.6103,-2.613,-2.6153,-2.6167,-2.6193,-2.6209,-2.6237,-2.6232,-2.6243,-2.6263,-2.6279,-2.6303,-2.6277,-2.6312,-2.6313,-2.6304,-2.6347,-2.6348,-2.6384,-2.6335,-2.6336,-2.6336,0,-2.6001,-2.6029,-2.6078,-2.6109,-2.6121,-2.6145,-2.6175,-2.62,-2.6227,-2.6236,-2.6257,-2.6264,-2.6296,-2.6284,-2.6328,-2.631,-2.6326,-2.6336,-2.6338,-2.634,-2.6325,-2.6349,-2.6395,-2.64,-2.6345,-2.6344,-2.6344,0,-2.6019,-2.6068,-2.6105,-2.6119,-2.6155,-2.6172,-2.6188,-2.6214,-2.6233,-2.626,-2.6272,-2.6302,-2.6318,-2.6341,-2.6356,-2.6346,-2.6399,-2.6388,-2.6407,-2.6406,-2.6416,-2.6415,-2.6464,-2.6428,-2.6428,-2.6428,-2.6428,0,-2.6057,-2.6087,-2.6113,-2.6135,-2.6169,-2.6185,-2.6218,-2.6234,-2.6258,-2.6283,-2.6291,-2.6314,-2.6333,-2.6359,-2.6371,-2.6406,-2.6413,-2.6421,-2.6424,-2.642,-2.6418,-2.6429,-2.6426,-2.643,-2.6429,-2.6429,-2.6429,0,-2.6082,-2.6101,-2.6141,-2.6173,-2.6182,-2.6205,-2.6232,-2.6254,-2.6269,-2.6301,-2.6309,-2.6333,-2.6364,-2.6382,-2.6421,-2.6429,-2.6467,-2.6469,-2.6458,-2.6459,-2.6476,-2.6474,-2.6533,-2.6541,-2.6501,-2.6501,-2.6501,0,-2.6104,-2.6128,-2.6163,-2.618,-2.6197,-2.6225,-2.6244,-2.6262,-2.6281,-2.6314,-2.6332,-2.6364,-2.639,-2.6439,-2.6459,-2.6489,-2.6491,-2.651,-2.6496,-2.6491,-2.6491,-2.6489,-2.6491,-2.6512,-2.6512,-2.6513,-2.6513,0,-2.6142,-2.615,-2.6178,-2.6209,-2.6232,-2.6257,-2.6282,-2.6296,-2.6317,-2.6339,-2.6371,-2.6391,-2.6432,-2.6463,-2.6495,-2.6511,-2.6515,-2.6517,-2.6523,-2.6519,-2.6511,-2.6515,-2.6463,-2.6516,-2.6515,-2.6515,-2.6515,-2.6515,-2.6166,-2.6187,-2.6215,-2.6245,-2.6266,-2.6289,-2.6311,-2.633,-2.6357,-2.6391,-2.64,-2.6434,-2.6461,-2.6504,-2.6521,-2.6548,-2.6544,-2.6553,-2.6555,-2.6557,-2.6557,-2.6508,-2.6554,-2.6554,-2.6554,-2.6554,-2.6554,0,-2.6203,-2.6222,-2.625,-2.6285,-2.6309,-2.6312,-2.634,-2.636,-2.6389,-2.6414,-2.644,-2.6477,-2.6508,-2.6531,-2.6563,-2.658,-2.6582,-2.6587,-2.6585,-2.6589,-2.6558,-2.655,-2.6584,-2.6584,-2.6584,-2.6584,-2.6584,-2.6584,-2.6225,-2.6261,-2.6273,-2.6319,-2.6337,-2.6371,-2.6387,-2.6408,-2.6428,-2.6469,-2.6495,-2.651,-2.6535,-2.6568,-2.6596,-2.6603,-2.6613,-2.6618,-2.6624,-2.6594,-2.6591,-2.6588,-2.658,-2.662,-2.662,-2.6652,-2.6652,-2.6652]},{"header":{"parameterUnit":"m.s-1","parameterCategory":1,"la1":30.2991,"la2":30.254,"lo1":-89.0895,"lo2":-89.0444,"dy":0.0017,"dx":0.0017,"nx":28,"ny":28,"refTime":"2024-05-31T09:00:00:Z","depth":0,"parameterNumber":3,"parameterNumberName":"V-component_of_WINDS"},"data":[0,0,0,0,0,0,0,0,0,0,0,0,0,0,0,0,0,0,0,0,0,0,0,0,0,0,0,0,0,0,0,0,0,0,0,0,0,0,0,0,0,0,0,0,0,0,0,0,0,0,0,0,0,0,0,0,0,0,3.6956,3.6955,0,3.6911,3.6911,3.691,3.6794,3.6791,3.6789,3.6786,3.6743,3.6744,3.6746,0,0,0,0,0,0,0,0,0,0,0,0,0,3.6944,3.6945,3.6956,3.6955,3.6954,3.6911,3.6911,3.691,3.6794,3.6791,3.6788,3.6785,3.6743,3.6744,3.6746,0,0,0,0,0,0,0,0,0,0,0,0,0,3.693,3.6945,3.6956,3.6891,3.6885,3.6911,3.6911,3.691,3.6795,3.6791,3.6787,3.6784,3.6742,3.6744,3.6746,3.6831,0,0,3.6751,3.6752,0,0,0,0,0,0,0,0,3.6931,3.693,3.6901,3.6896,3.6889,3.6854,3.6891,3.6884,3.6796,3.6829,3.6786,3.6782,3.6783,3.6781,3.6781,3.6829,3.6828,3.6751,3.6752,3.6753,3.6754,0,0,0,0,0,0,0,3.6932,3.6931,3.6938,3.6901,3.6894,3.6866,3.686,3.6889,3.6828,3.6826,3.6817,3.6814,3.6779,3.678,3.6779,3.6827,3.6751,3.6753,3.6754,3.6755,3.6944,3.6947,0,0,0,0,0,0,3.6941,3.6933,3.6939,3.6937,3.6901,3.6869,3.6862,3.6869,3.6827,3.6817,3.6817,3.6808,3.6779,3.6778,3.6778,3.6874,3.6753,3.6755,3.6756,3.694,3.6945,3.6949,0,0,0,0,0,0,3.6942,3.6943,3.6941,3.6932,3.693,3.6873,3.6882,3.687,3.687,3.682,3.6809,3.6828,3.6776,3.6775,3.6819,3.6871,3.6756,3.6757,3.6935,3.6941,3.6947,3.7068,0,0,0,0,0,0,3.6942,3.6944,3.6974,3.6934,3.6931,3.6982,3.6885,3.6872,3.6874,3.6862,3.6828,3.6819,3.6773,3.6817,3.6821,3.6871,3.6759,3.693,3.6938,3.6945,3.7059,3.7077,3.7093,0,0,0,0,0,3.6942,3.7011,3.6977,3.6978,3.6968,3.6985,3.6984,3.6928,3.6878,3.6909,3.6877,3.682,3.6866,3.6822,3.6825,3.6877,3.6926,3.6936,3.6944,3.7051,3.7074,3.7093,0,0,0,0,0,0,3.7059,3.7004,3.6965,3.7023,3.701,3.6966,3.7002,3.6954,3.6955,3.6944,3.6877,3.687,3.6923,3.6905,3.6858,3.6959,3.6887,3.6897,3.6967,3.6988,3.7005,3.7006,3.676,0,0,0,0,0,3.7092,3.7109,3.7061,3.7117,3.7112,3.7059,3.7065,3.7024,3.7007,3.7001,3.6972,3.6959,3.697,3.6979,3.6986,3.7058,3.7048,3.7095,3.7113,3.7127,3.7135,3.7171,3.7191,3.6978,3.6978,3.6978,0,0,3.7159,3.7131,3.7146,3.714,3.7124,3.7145,3.7055,3.708,3.7095,3.7005,3.7043,3.7023,3.7004,3.7062,3.7086,3.7048,3.7193,3.7138,3.715,3.715,3.7182,3.7203,3.7221,3.6984,3.6983,3.6982,0,0,3.729,3.7272,3.7316,3.7303,3.7281,3.7246,3.7258,3.7221,3.7204,3.7242,3.7175,3.7193,3.7214,3.7203,3.72,3.7333,3.728,3.7338,3.7425,3.7461,3.7478,3.7492,3.7538,3.7556,3.7347,3.7348,3.7348,0,3.7376,3.7403,3.7345,3.7375,3.7374,3.7295,3.7339,3.733,3.7313,3.7315,3.7274,3.7299,3.7281,3.7335,3.7367,3.7369,3.7379,3.7339,3.748,3.7494,3.7507,3.755,3.7567,3.7355,3.7354,3.7353,3.7352,0,3.751,3.753,3.7569,3.7553,3.7557,3.7595,3.7543,3.7555,3.7516,3.7486,3.7527,3.7503,3.7504,3.7515,3.7477,3.7564,3.7542,3.7492,3.7418,3.7535,3.7574,3.759,3.7364,3.7362,3.736,3.7358,0,0,3.7708,3.7663,3.7678,3.767,3.7642,3.7657,3.7693,3.7694,3.7705,3.7698,3.7725,3.7746,3.77,3.7698,3.7658,3.7691,3.7796,3.7636,3.7635,3.7665,3.789,3.7925,3.7945,3.7762,3.7765,3.7768,3.7891,0,3.7831,3.7886,3.7836,3.7901,3.792,3.7847,3.7878,3.7865,3.7839,3.7852,3.7824,3.7839,3.7779,3.7777,3.7806,3.7777,3.7839,3.7768,3.7786,3.7788,3.7789,3.7965,3.8002,3.8119,3.7906,3.7908,3.791,0,3.7979,3.7977,3.8045,3.8014,3.802,3.8048,3.8046,3.8059,3.8044,3.8024,3.8023,3.7975,3.8008,3.794,3.7985,3.7937,3.7943,3.7931,3.7934,3.793,3.7853,3.7964,3.8155,3.8172,3.7934,3.7932,3.793,0,3.8114,3.813,3.8172,3.8168,3.8134,3.8156,3.8143,3.8124,3.8129,3.8128,3.813,3.8135,3.8136,3.8141,3.8096,3.8051,3.8148,3.8075,3.8131,3.8132,3.815,3.8149,3.8342,3.8161,3.816,3.816,3.816,0,3.8254,3.8297,3.8232,3.8258,3.8305,3.825,3.8298,3.8278,3.8263,3.8284,3.8224,3.8245,3.8186,3.8202,3.8168,3.821,3.8212,3.8196,3.8186,3.82,3.8201,3.82,3.8189,3.8165,3.8164,3.8163,3.8162,0,3.841,3.8369,3.841,3.8375,3.8368,3.8404,3.8375,3.8398,3.837,3.8398,3.8401,3.8357,3.8373,3.833,3.834,3.8317,3.8377,3.8356,3.8382,3.8374,3.8431,3.8425,3.8627,3.865,3.8457,3.8459,3.846,0,3.85,3.8531,3.8501,3.8511,3.8501,3.8518,3.8522,3.8471,3.8478,3.8466,3.849,3.8501,3.8506,3.8536,3.8505,3.8512,3.8489,3.8559,3.8489,3.8502,3.8487,3.8484,3.8487,3.8572,3.8574,3.8576,3.8578,0,3.8663,3.8641,3.865,3.8653,3.866,3.866,3.8655,3.8667,3.8612,3.8624,3.8639,3.8644,3.8654,3.8666,3.8667,3.8655,3.8607,3.8601,3.8614,3.8626,3.8639,3.863,3.8418,3.8595,3.8594,3.8592,3.8591,3.8591,3.8786,3.8811,3.8794,3.8806,3.8798,3.8796,3.8816,3.8791,3.8803,3.8806,3.8777,3.8799,3.8785,3.8782,3.8775,3.8792,3.876,3.8779,3.8783,3.8788,3.8796,3.864,3.8793,3.8792,3.8791,3.8791,3.8791,0,3.8943,3.893,3.8942,3.8938,3.8948,3.8905,3.8899,3.891,3.893,3.8921,3.8929,3.8947,3.8959,3.8931,3.8939,3.8958,3.8936,3.8961,3.8958,3.8955,3.8826,3.8812,3.8978,3.8978,3.8978,3.8978,3.8978,3.8978,3.9026,3.9066,3.9044,3.9079,3.9066,3.9086,3.9086,3.9085,3.9078,3.9101,3.911,3.9092,3.9076,3.9083,3.9092,3.9084,3.9089,3.9121,3.9105,3.8983,3.8965,3.8947,3.8934,3.9123,3.9123,3.9232,3.9233,3.9234]}]]